Tracking 25711 objects as of 23-May-2022
HD Live streaming from Space Station
objects crossing your sky now

ONEWEB-0274

Track ONEWEB-0274 now!
10-day predictions
ONEWEB-0274 is classified as:


NORAD ID: 48992
Int'l Code: 2021-061AB
Perigee: 1,203.7 km
Apogee: 1,206.3 km
Inclination: 87.9 °
Period: 109.4 minutes
Semi major axis: 7575 km
RCS: Unknown
Launch date: July 1, 2021
Source: United Kingdom (UK)
Launch site: VOSTOCHNY COSMODROME (VOSTO)
aabbcc
Your satellite tracking list
Your tracking list is empty




NASA's NSSDC Master Catalog

Two Line Element Set (TLE):
1 48992U 21060AB  22142.91668981  .00048163  00000-0  12534+0 0  9996
2 48992  87.9104 164.6483 0001779  79.9289  39.7428 13.16567592 45358
Source of the keplerian elements: AFSPC